When you browse on this site, cookies collect data to enhance your experience and personalize the content and advertising you see.
Visit our Privacy Policy to learn more. By continuing to use the site, you agree to this use of cookies and data.
  • In France
  • List of Countries
  • For 7 days
  • Water Temperature
  • Weather Map
  • Weather Widgets
  • user-avatar
    Login

    Hourly Weather Taltal

    Today, 15 November, Friday

    Time Temperature Precipitation Wind Pressure Humidity
    00:00 +18°C° 0 mm 2 mps 758 mmHg 75%
    01:00 +18°C° 0 mm 2 mps 758 mmHg 80%
    02:00 +18°C° 0 mm 2 mps 758 mmHg 80%
    03:00 +18°C° 0 mm 2 mps 758 mmHg 80%
    04:00 +17°C° 0 mm 2 mps 758 mmHg 80%
    05:00 +20°C° 0 mm 1 mps 758 mmHg 74%
    06:00 +21°C° 0 mm 1 mps 759 mmHg 68%
    07:00 +23°C° 0 mm 1 mps 759 mmHg 61%
    08:00 +24°C° 0 mm 1 mps 758 mmHg 59%
    09:00 +25°C° 0 mm 2 mps 758 mmHg 57%
    10:00 +26°C° 0 mm 2 mps 758 mmHg 54%
    11:00 +27°C° 0 mm 2 mps 757 mmHg 54%
    12:00 +27°C° 0 mm 2 mps 757 mmHg 55%
    13:00 +27°C° 0 mm 2 mps 756 mmHg 55%
    14:00 +27°C° 0 mm 2 mps 756 mmHg 54%
    15:00 +27°C° 0 mm 2 mps 755 mmHg 54%
    16:00 +26°C° 0 mm 1 mps 755 mmHg 54%
    17:00 +24°C° 0 mm 1 mps 755 mmHg 63%
    18:00 +22°C° 0 mm 1 mps 756 mmHg 72%
    19:00 +18°C° 0 mm 0 mps 757 mmHg 81%
    20:00 +20°C° 0 mm 1 mps 757 mmHg 83%
    21:00 +19°C° 0 mm 1 mps 757 mmHg 85%
    22:00 +18°C° 0 mm 2 mps 758 mmHg 86%
    23:00 +18°C° 0 mm 2 mps 758 mmHg 86%

    Tomorrow, 16 November, Saturday

    Time Temperature Precipitation Wind Pressure Humidity
    00:00 +18°C° 0 mm 2 mps 758 mmHg 85%
    01:00 +17°C° 0 mm 2 mps 758 mmHg 84%
    02:00 +17°C° 0 mm 2 mps 758 mmHg 85%
    03:00 +17°C° 0 mm 2 mps 758 mmHg 85%
    04:00 +17°C° 0 mm 2 mps 758 mmHg 85%
    05:00 +18°C° 0 mm 2 mps 758 mmHg 76%
    06:00 +21°C° 0 mm 1 mps 758 mmHg 67%
    07:00 +23°C° 0 mm 1 mps 758 mmHg 58%
    08:00 +24°C° 0 mm 2 mps 758 mmHg 58%
    09:00 +25°C° 0 mm 2 mps 757 mmHg 57%
    10:00 +26°C° 0 mm 2 mps 757 mmHg 57%
    11:00 +26°C° 0 mm 2 mps 756 mmHg 54%
    12:00 +27°C° 0 mm 2 mps 756 mmHg 52%
    13:00 +27°C° 0 mm 2 mps 755 mmHg 50%
    14:00 +27°C° 0 mm 2 mps 755 mmHg 50%
    15:00 +26°C° 0 mm 2 mps 755 mmHg 51%
    16:00 +26°C° 0 mm 2 mps 754 mmHg 52%
    17:00 +24°C° 0 mm 1 mps 755 mmHg 62%
    18:00 +22°C° 0 mm 1 mps 755 mmHg 71%
    19:00 +20°C° 0 mm 1 mps 756 mmHg 81%
    20:00 +18°C° 0 mm 0 mps 756 mmHg 82%
    21:00 +18°C° 0 mm 0 mps 757 mmHg 82%
    22:00 +17°C° 0 mm 0 mps 757 mmHg 83%
    23:00 +19°C° 0 mm 1 mps 757 mmHg 81%

    Day after tomorrow, 17 November, Sunday

    Time Temperature Precipitation Wind Pressure Humidity
    00:00 +19°C° 0 mm 1 mps 757 mmHg 80%
    01:00 +19°C° 0 mm 1 mps 757 mmHg 78%
    02:00 +19°C° 0 mm 1 mps 757 mmHg 79%
    03:00 +18°C° 0 mm 1 mps 757 mmHg 79%
    04:00 +18°C° 0 mm 1 mps 757 mmHg 80%
    05:00 +20°C° 0 mm 1 mps 757 mmHg 71%
    06:00 +22°C° 0 mm 1 mps 758 mmHg 63%
    07:00 +24°C° 0 mm 1 mps 758 mmHg 55%
    08:00 +25°C° 0 mm 2 mps 757 mmHg 52%
    09:00 +27°C° 0 mm 2 mps 757 mmHg 49%
    10:00 +28°C° 0 mm 3 mps 757 mmHg 47%
    11:00 +28°C° 0 mm 3 mps 756 mmHg 45%
    12:00 +28°C° 0 mm 3 mps 756 mmHg 43%
    13:00 +29°C° 0 mm 3 mps 755 mmHg 41%
    14:00 +28°C° 0 mm 3 mps 755 mmHg 42%
    15:00 +27°C° 0 mm 2 mps 754 mmHg 43%
    16:00 +27°C° 0 mm 2 mps 754 mmHg 44%
    17:00 +24°C° 0 mm 2 mps 755 mmHg 53%
    18:00 +22°C° 0 mm 1 mps 755 mmHg 63%
    19:00 +20°C° 0 mm 1 mps 756 mmHg 72%
    20:00 +19°C° 0 mm 1 mps 756 mmHg 72%
    21:00 +19°C° 0 mm 1 mps 757 mmHg 73%
    22:00 +19°C° 0 mm 1 mps 757 mmHg 74%
    23:00 +16°C° 0 mm 0 mps 757 mmHg 73%

    18 November, Monday

    Time Temperature Precipitation Wind Pressure Humidity
    00:00 +16°C° 0 mm 0 mps 756 mmHg 72%
    01:00 +16°C° 0 mm 0 mps 756 mmHg 71%
    02:00 +15°C° 0 mm 0 mps 756 mmHg 71%
    03:00 +15°C° 0 mm 0 mps 756 mmHg 71%
    04:00 +15°C° 0 mm 0 mps 756 mmHg 70%
    05:00 +18°C° 0 mm 0 mps 756 mmHg 61%
    06:00 +23°C° 0 mm 1 mps 756 mmHg 52%
    07:00 +26°C° 0 mm 1 mps 756 mmHg 42%
    08:00 +26°C° 0 mm 2 mps 756 mmHg 43%
    09:00 +27°C° 0 mm 2 mps 755 mmHg 43%
    10:00 +28°C° 0 mm 2 mps 755 mmHg 44%
    11:00 +28°C° 0 mm 2 mps 755 mmHg 42%
    12:00 +29°C° 0 mm 2 mps 755 mmHg 39%
    13:00 +29°C° 0 mm 2 mps 754 mmHg 37%
    14:00 +29°C° 0 mm 2 mps 754 mmHg 36%
    15:00 +28°C° 0 mm 2 mps 754 mmHg 36%
    16:00 +28°C° 0 mm 1 mps 754 mmHg 35%
    17:00 +26°C° 0 mm 1 mps 754 mmHg 42%
    18:00 +23°C° 0 mm 1 mps 755 mmHg 48%
    19:00 +19°C° 0 mm 0 mps 755 mmHg 54%
    20:00 +19°C° 0 mm 0 mps 756 mmHg 53%
    21:00 +19°C° 0 mm 0 mps 756 mmHg 51%
    22:00 +21°C° 0 mm 1 mps 756 mmHg 49%
    23:00 +21°C° 0 mm 1 mps 756 mmHg 48%

    19 November, Tuesday

    Time Temperature Precipitation Wind Pressure Humidity
    00:00 +21°C° 0 mm 1 mps 756 mmHg 47%
    01:00 +21°C° 0 mm 1 mps 756 mmHg 46%
    02:00 +21°C° 0 mm 1 mps 756 mmHg 49%
    03:00 +20°C° 0 mm 1 mps 756 mmHg 52%
    04:00 +19°C° 0 mm 1 mps 756 mmHg 55%
    05:00 +21°C° 0 mm 1 mps 756 mmHg 51%
    06:00 +24°C° 0 mm 1 mps 756 mmHg 46%
    07:00 +26°C° 0 mm 1 mps 757 mmHg 42%
    08:00 +27°C° 0 mm 2 mps 756 mmHg 42%
    09:00 +28°C° 0 mm 2 mps 756 mmHg 42%
    10:00 +29°C° 0 mm 2 mps 756 mmHg 41%
    11:00 +29°C° 0 mm 2 mps 755 mmHg 41%
    12:00 +29°C° 0 mm 2 mps 755 mmHg 41%
    13:00 +29°C° 0 mm 2 mps 755 mmHg 41%
    14:00 +29°C° 0 mm 2 mps 754 mmHg 42%
    15:00 +29°C° 0 mm 2 mps 754 mmHg 43%
    16:00 +28°C° 0 mm 1 mps 754 mmHg 45%
    17:00 +26°C° 0 mm 1 mps 755 mmHg 53%
    18:00 +24°C° 0 mm 1 mps 755 mmHg 61%
    19:00 +20°C° 0 mm 0 mps 756 mmHg 70%
    20:00 +19°C° 0 mm 0 mps 756 mmHg 70%
    21:00 +19°C° 0 mm 0 mps 756 mmHg 70%
    22:00 +19°C° 0 mm 0 mps 757 mmHg 71%
    23:00 +18°C° 0 mm 0 mps 756 mmHg 72%

    20 November, Wednesday

    Time Temperature Precipitation Wind Pressure Humidity
    00:00 +18°C° 0 mm 0 mps 756 mmHg 72%
    01:00 +18°C° 0 mm 0 mps 756 mmHg 73%
    02:00 +18°C° 0 mm 0 mps 756 mmHg 74%
    03:00 +17°C° 0 mm 0 mps 756 mmHg 75%
    04:00 +17°C° 0 mm 0 mps 756 mmHg 76%
    05:00 +19°C° 0 mm 0 mps 757 mmHg 66%
    06:00 +24°C° 0 mm 1 mps 757 mmHg 56%
    07:00 +26°C° 0 mm 1 mps 757 mmHg 45%
    08:00 +27°C° 0 mm 1 mps 757 mmHg 44%
    09:00 +28°C° 0 mm 2 mps 756 mmHg 43%
    10:00 +29°C° 0 mm 3 mps 756 mmHg 42%
    11:00 +29°C° 0 mm 3 mps 756 mmHg 42%
    12:00 +29°C° 0 mm 2 mps 756 mmHg 42%
    13:00 +29°C° 0 mm 2 mps 756 mmHg 41%
    14:00 +29°C° 0 mm 2 mps 755 mmHg 42%
    15:00 +28°C° 0 mm 2 mps 755 mmHg 42%
    16:00 +28°C° 0 mm 2 mps 755 mmHg 43%
    17:00 +26°C° 0 mm 2 mps 756 mmHg 48%
    18:00 +24°C° 0 mm 1 mps 756 mmHg 54%
    19:00 +22°C° 0 mm 1 mps 756 mmHg 60%
    20:00 +22°C° 0 mm 1 mps 757 mmHg 62%
    21:00 +21°C° 0 mm 1 mps 757 mmHg 64%
    22:00 +20°C° 0 mm 1 mps 757 mmHg 66%
    23:00 +20°C° 0 mm 1 mps 757 mmHg 70%
    Show more